This demonstration page uses our WeatherBlox Daily Observations layout. Learn more.

Left ArrowRight Arrow

38.20091, -84.87328

Hourly Observations for July 17, 2017

Temp ( °F °C ) Dew Point ( °F °C ) Humidity (%) Winds ( mph kmh ) Pressure ( in mb ) Visibility ( mi km ) Precip ( " mm )
12:53 am 00:53 Clear 71 21.7 65 18.3 81 81 Calm 29.96 1015 10 16 0.00 0.00
1:53 am 01:53 Clear 69 20.6 65 18.3 87 87 Calm 29.96 1015 10 16 0.00 0.00
2:53 am 02:53 Clear 68 20 64 17.8 87 87 Calm 29.97 1015 10 16 0.00 0.00
3:53 am 03:53 Clear 67 19.4 63 17.2 87 87 Calm 29.95 1014 10 16 0.00 0.00
4:53 am 04:53 Clear 66 18.9 62 16.7 87 87 undefined N/A 29.94 1014 10 16 0.00 0.00
5:53 am 05:53 Clear 67 19.4 63 17.2 87 87 Calm 29.93 1014 10 16 0.00 0.00
6:53 am 06:53 Sunny 66 18.9 62 16.7 87 87 Calm 29.97 1015 10 16 0.00 0.00
7:53 am 07:53 Sunny 68 20 63 17.2 84 84 Calm 29.99 1016 10 16 0.00 0.00
8:53 am 08:53 Sunny 73 22.8 65 18.3 76 76 Calm 30.00 1016 10 16 0.00 0.00
9:53 am 09:53 Sunny 77 25 66 18.9 69 69 Calm 30.01 1016 10 16 0.00 0.00
10:53 am 10:53 Sunny 82 27.8 66 18.9 58 58 Calm 30.01 1016 10 16 0.00 0.00
11:53 am 11:53 Partly Cloudy 83 28.3 66 18.9 57 57 Calm 30.01 1016 10 16 0.00 0.00
12:53 pm 12:53 Mostly Sunny 86 30 65 18.3 49 49 Calm 30.00 1016 10 16 0.00 0.00
1:53 pm 13:53 Mostly Cloudy 84 28.9 65 18.3 53 53 Calm 30.00 1016 10 16 0.00 0.00
2:53 pm 14:53 Mostly Cloudy 88 31.1 63 17.2 43 43 Calm 29.98 1015 10 16 0.00 0.00
3:53 pm 15:53 Sunny 88 31.1 64 17.8 45 45 Calm 29.98 1015 10 16 0.00 0.00
4:53 pm 16:53 Partly Cloudy 89 31.7 63 17.2 42 42 Calm 29.97 1015 10 16 0.00 0.00
5:53 pm 17:53 Partly Cloudy 87 30.6 64 17.8 46 46 VRB 5 7 29.96 1015 10 16 0.00 0.00
6:53 pm 18:53 Sunny 87 30.6 61 16.1 42 42 SE 3 6 29.96 1015 10 16 0.00 0.00
7:53 pm 19:53 Sunny 85 29.4 63 17.2 48 48 SSE 3 6 29.97 1015 10 16 0.00 0.00
8:53 pm 20:53 Sunny 79 26.1 67 19.4 67 67 WSW 3 6 29.98 1015 10 16 0.00 0.00
9:53 pm 21:53 Clear 77 25 66 18.9 69 69 Calm 29.98 1015 10 16 0.00 0.00
10:53 pm 22:53 Clear 74 23.3 66 18.9 76 76 Calm 29.98 1015 10 16 0.00 0.00
11:53 pm 23:53 Clear 72 22.2 66 18.9 82 82 Calm 29.99 1016 10 16 0.00 0.00

Powered by AerisWeather